User: anonymous   Login
Location: Hartman Creek State Park
(44.3257°N, 89.2134°W)
Time: 16:35:39
(UTC-06:00)
Language:

Terra - Orbit

View from above orbital plane
View from above orbital plane
View from above satellite
View from above satellite

Ground track
Ground track

The orbit data is extracted from the following two-line orbital elements,

1 25994U 99068A   17345.16624004 -.00000094  00000-0 -10696-4 0  9995
2 25994  98.2158  57.6734 0000951  63.8972 296.2334 14.57120005956448
Epoch (UTC): 11 December 2017 03:59:23
Eccentricity: 0.0000951
inclination: 98.2158°
perigee height: 702 km
apogee height: 703 km
right ascension of ascending node: 57.6734°
argument of perigee: 63.8972°
revolutions per day: 14.57120005
mean anomaly at epoch: 296.2334°
orbit number at epoch: 95644

The dashed part of the orbit path shows where the satellite is in the earth's shadow,  

DLR